GEFSNGP_500_meanwind_006.txt.gz
Wind_Speed
39 44 49 52 56 60 64 69 71 73 72 70 65 58 53 51 50 48 47 46 44 42 40 38 36 33 32 31 32 33 34 34 34 33 33 32 30 28 25 23 22 19 16 19
41 47 51 54 58 63 66 69 72 73 70 68 60 53 49 48 47 46 46 45 44 43 42 41 39 36 35 34 35 36 37 37 37 35 34 33 32 29 25 22 21 18 16 15
45 50 55 56 61 65 68 71 75 73 71 64 55 50 47 47 47 45 44 45 45 45 45 44 42 41 39 38 38 39 40 41 41 39 37 34 33 31 28 24 21 19 18 18
48 53 55 59 62 66 70 71 72 69 64 57 52 49 47 48 48 45 45 46 47 48 48 48 47 46 45 44 44 43 43 43 43 42 40 37 35 33 31 28 25 23 21 21
52 55 57 61 65 68 72 72 71 65 57 52 49 48 47 48 46 44 45 48 50 51 52 52 52 51 51 50 49 48 47 46 45 42 40 38 36 35 33 31 29 28 26 25
53 56 59 63 66 70 73 70 66 58 52 49 47 45 44 43 42 44 47 50 53 55 55 55 55 55 55 54 53 51 50 48 46 43 40 38 36 35 35 34 32 32 31 29
55 57 59 65 68 71 71 71 65 54 47 46 45 44 45 44 45 47 51 54 56 57 57 58 58 57 57 57 56 55 53 51 48 45 43 41 38 36 35 35 35 35 35 34
57 59 61 65 68 71 71 69 58 47 44 44 44 46 47 49 50 52 54 56 57 58 59 61 61 61 61 60 58 57 56 54 51 49 47 45 43 40 38 37 37 36 37 38
57 58 62 66 69 72 72 65 52 43 42 43 46 49 51 53 54 56 57 58 60 61 62 62 60 59 56 54 52 50 49 47 47 46 46 47 47 46 44 43 41 40 39 40
57 60 63 67 69 72 70 62 49 42 42 45 48 51 54 56 58 58 60 62 62 59 55 52 51 51 51 50 50 48 45 43 40 39 38 39 42 45 47 48 47 45 44 44
57 60 63 66 69 71 69 61 50 43 43 46 50 54 56 58 59 61 62 58 52 49 49 50 51 51 51 52 52 51 48 45 41 38 36 34 33 34 38 44 50 51 51 50
57 61 63 65 69 71 69 60 50 45 45 48 52 56 58 59 61 60 54 47 46 47 48 49 50 51 52 52 52 51 49 46 42 38 36 35 34 32 32 32 36 42 49 53
58 61 63 65 69 71 67 58 49 45 47 50 53 56 58 59 58 51 44 43 44 46 47 49 51 52 54 54 54 52 50 47 44 40 37 35 34 32 30 30 30 31 35 41
58 61 62 65 69 70 64 56 49 46 47 50 53 56 57 56 50 42 41 42 44 46 47 49 51 54 56 57 57 55 52 49 47 43 40 37 34 32 29 28 27 27 27 29
58 59 61 65 69 69 63 54 48 47 48 50 53 55 55 49 41 38 39 41 44 46 48 50 52 54 57 59 59 57 54 51 49 47 44 40 37 34 32 30 28 27 26 26
57 58 61 65 69 66 58 51 47 46 48 51 53 53 49 40 36 36 37 40 42 45 48 51 53 55 58 60 61 59 57 55 54 51 48 44 40 37 34 32 31 29 28 27
56 58 61 65 67 61 53 47 45 46 48 51 51 49 41 34 34 35 37 39 43 45 49 52 55 57 59 60 61 61 58 55 53 52 51 47 43 40 37 35 32 31 29 28
55 57 61 65 64 56 49 45 44 46 49 50 49 43 34 31 31 33 36 40 43 47 50 53 56 58 60 61 63 62 58 55 54 54 52 49 44 40 37 35 33 31 30 29
55 57 60 63 59 51 46 44 45 47 49 48 45 37 30 28 29 31 35 39 42 45 48 52 55 58 61 62 63 63 61 60 59 57 55 50 46 42 38 35 32 30 28 26
54 56 59 60 55 48 44 44 45 47 48 46 41 32 27 27 28 31 35 39 43 46 48 50 53 57 60 61 64 66 65 62 60 58 56 52 48 44 40 36 32 27 24 21
53 55 58 56 50 45 43 43 45 47 46 43 36 28 25 24 26 30 35 40 43 45 47 49 52 56 60 62 66 67 64 61 60 60 58 55 51 47 43 38 33 28 22 19
52 55 56 53 47 42 41 42 45 46 44 40 32 25 23 23 27 32 36 40 42 44 46 47 50 55 60 62 64 65 62 59 59 60 61 60 57 53 49 43 38 32 26 21
51 53 53 48 43 39 40 43 45 44 42 37 28 22 21 23 27 32 36 39 40 43 45 45 48 53 57 60 62 63 62 58 56 58 60 62 63 61 58 52 46 40 34 29
50 51 49 44 39 38 40 42 44 42 40 33 25 20 19 22 27 32 36 38 40 42 43 43 45 49 53 58 60 62 62 58 54 54 56 59 61 62 62 61 58 54 49 45
48 48 46 41 37 37 39 41 42 40 37 30 22 17 18 22 26 31 34 36 38 41 41 40 41 44 49 54 59 61 61 60 56 54 55 56 57 57 58 58 59 60 59 57
47 46 43 37 34 35 37 40 40 38 34 26 18 16 17 20 25 29 32 35 37 39 39 38 38 40 44 50 55 58 59 59 58 56 54 54 54 55 54 54 53 53 53 52
45 44 39 33 32 33 36 39 38 36 31 23 15 13 15 19 23 28 31 33 36 38 38 37 37 38 41 46 50 53 56 57 58 58 57 54 52 52 52 52 52 51 50 49

GEFSNGP_500_meanwind_012.txt.gz
Wind_Speed
33 37 41 47 52 56 60 65 67 69 72 74 74 70 63 56 52 52 55 57 59 61 62 63 63 63 62 60 59 58 57 56 55 54 53 51 49 47 46 44 43 40 38 37
35 39 42 48 54 59 63 66 68 70 72 75 73 68 61 55 53 54 57 61 63 64 65 65 63 59 57 54 53 52 52 51 51 50 48 47 47 47 46 45 43 41 39 37
37 41 44 50 56 61 65 67 69 70 73 75 73 67 61 55 54 56 60 63 66 66 64 60 58 56 54 54 54 54 53 52 51 50 47 45 42 42 43 44 43 41 39 37
39 43 48 53 58 63 66 67 69 72 74 75 72 65 58 54 55 57 62 65 65 62 58 55 54 53 54 55 56 57 57 56 54 51 48 45 41 39 39 40 41 41 39 38
41 45 50 56 61 66 68 67 70 72 74 73 69 62 56 55 56 60 63 64 61 57 54 53 53 53 54 56 57 59 59 58 55 52 48 44 39 36 34 35 37 40 40 39
42 48 54 58 63 67 68 68 71 72 73 72 67 61 57 56 58 61 62 59 55 52 51 51 52 54 56 57 58 59 59 58 56 53 49 45 40 35 31 30 30 33 39 41
44 50 56 61 66 68 67 69 70 71 72 70 63 58 57 57 59 61 59 55 52 50 51 52 54 56 58 59 60 61 61 59 57 53 50 46 43 37 32 28 26 27 31 38
47 53 58 63 66 67 67 68 69 71 71 66 60 56 56 58 59 58 54 51 49 49 51 53 55 58 60 61 62 63 62 60 56 53 50 47 44 40 35 30 27 24 25 29
48 53 59 64 67 67 67 67 68 70 69 63 57 54 57 58 58 55 51 48 48 49 52 55 57 59 61 62 63 64 63 60 56 53 51 48 45 42 38 33 29 25 23 23
49 56 61 65 68 67 66 66 68 69 66 60 55 55 57 58 55 51 48 46 47 50 53 55 57 59 62 64 65 64 62 60 58 55 52 50 47 43 39 35 30 27 24 22
50 57 62 66 67 67 65 66 68 67 63 57 55 56 57 56 53 48 45 45 47 51 53 55 57 60 63 65 65 62 61 60 60 59 57 53 49 45 40 35 32 28 24 22
51 58 63 66 67 66 64 65 66 66 61 57 55 56 56 54 50 45 43 45 48 51 53 54 56 60 64 65 64 61 59 60 62 62 61 57 52 45 41 36 31 28 26 23
52 59 64 67 66 64 63 64 65 64 59 56 56 56 55 51 47 43 43 46 48 51 52 52 55 60 64 66 63 60 59 61 63 65 64 61 55 47 40 34 31 27 25 24
54 60 64 66 64 62 61 63 64 62 58 55 56 55 53 49 44 42 43 45 48 49 50 51 55 60 64 66 63 59 58 60 62 64 66 64 59 50 42 34 28 25 22 21
55 60 63 64 62 60 60 62 63 60 57 55 55 54 51 46 42 40 42 45 47 48 48 50 54 59 64 65 63 60 58 59 60 62 66 69 66 58 46 36 29 23 20 18
55 59 62 62 60 59 60 61 61 58 55 54 54 53 49 44 40 40 42 45 45 46 47 49 53 58 62 64 63 60 58 59 61 62 64 68 70 66 54 42 32 24 19 16
55 58 60 60 58 58 59 61 59 56 54 53 53 51 47 42 39 40 43 45 45 46 47 49 52 57 60 64 63 61 60 60 62 62 63 65 68 69 63 51 39 29 23 17
54 57 59 58 57 57 58 59 57 55 52 51 51 49 44 39 37 38 41 43 45 46 47 48 51 54 59 61 62 62 61 60 60 60 61 62 64 67 68 62 51 40 30 24
55 57 58 56 56 56 57 57 55 53 50 50 49 47 42 37 35 36 39 41 43 44 45 46 49 52 56 58 61 62 61 59 57 58 59 60 61 63 65 65 63 56 46 36
56 57 57 55 55 55 56 56 54 51 49 48 48 45 40 35 34 35 38 41 43 44 45 45 47 50 53 56 59 61 61 60 57 56 57 59 60 60 61 62 62 61 59 54
56 57 55 54 54 54 55 54 52 49 47 46 46 43 38 33 32 34 37 40 42 43 44 44 45 47 51 54 56 58 59 59 58 57 57 58 59 59 59 58 58 58 58 57
55 55 54 53 52 53 53 53 50 47 45 45 44 41 36 31 30 32 34 37 39 41 43 43 43 45 49 52 53 54 56 57 58 58 58 58 59 59 58 57 56 55 55 54
54 54 52 51 51 51 52 50 48 46 44 43 42 39 35 30 29 30 33 35 37 39 41 42 42 43 46 49 50 51 52 54 56 58 58 59 59 60 60 59 58 56 55 53
53 52 50 50 50 50 50 48 46 43 41 41 40 38 34 29 27 27 30 32 34 37 40 41 41 41 42 45 47 48 49 51 53 55 57 58 59 60 60 60 60 59 58 56
52 50 49 48 48 48 48 46 44 41 40 39 39 37 33 28 25 26 27 30 32 35 38 39 40 39 39 41 44 45 47 48 50 52 54 55 57 58 59 59 60 60 60 59
50 48 46 46 46 47 46 44 42 39 38 38 38 36 33 28 24 24 25 27 29 32 35 37 38 38 37 38 40 42 44 45 46 48 50 52 54 55 57 58 58 59 59 59
48 46 45 44 45 45 44 42 40 37 36 36 36 35 32 28 24 23 24 25 27 29 32 34 36 36 36 36 36 38 40 41 43 45 47 48 50 51 53 55 56 57 57 58

GEFSNGP_500_meanwind_018.txt.gz
Wind_Speed
25 26 29 34 37 42 47 55 62 68 72 74 74 74 74 73 70 68 66 65 64 59 55 53 52 52 53 55 57 58 57 54 52 51 50 49 47 44 40 36 33 30 30 33
25 28 30 34 38 44 50 57 65 70 74 75 73 73 74 71 69 67 65 64 60 56 53 52 52 52 54 56 59 60 57 53 51 51 51 51 50 47 42 37 33 29 27 29
31 33 33 37 43 48 53 60 66 72 74 75 73 73 73 70 68 65 64 62 57 53 52 52 52 53 55 59 61 61 58 53 52 52 53 53 53 51 47 40 34 29 27 26
35 37 38 41 44 50 55 61 68 72 75 73 72 72 71 68 65 64 62 58 54 52 51 52 53 54 57 61 63 61 58 54 53 54 55 55 56 55 52 46 37 30 26 25
37 39 39 42 47 52 57 63 69 73 73 72 71 71 68 66 65 63 60 55 52 51 52 53 53 55 58 62 63 61 58 56 55 55 56 57 58 57 55 48 38 30 25 23
37 39 42 45 49 53 59 65 69 72 71 70 70 69 67 65 63 61 57 53 51 52 52 53 54 56 60 63 62 60 58 57 57 58 58 59 60 61 57 48 37 29 23 21
38 39 42 46 50 55 59 65 69 71 69 68 68 67 65 64 62 59 54 51 51 52 53 54 55 57 60 62 61 60 58 57 58 60 61 62 64 63 56 45 33 26 21 18
40 42 45 47 50 54 59 65 69 69 67 67 67 65 64 62 60 56 52 50 50 52 53 55 56 58 60 61 60 59 58 58 60 61 63 65 67 64 55 41 29 21 18 16
40 41 43 45 49 54 59 65 68 68 66 66 65 64 62 60 58 54 50 49 50 52 53 55 56 58 59 60 59 59 58 59 61 62 64 67 69 66 54 39 26 17 14 13
39 41 43 46 50 55 59 65 68 66 65 65 64 62 60 58 56 52 48 47 49 51 53 54 55 57 59 59 59 59 59 59 61 62 63 67 71 69 57 41 27 17 11 10
38 40 42 46 51 55 59 64 67 65 64 63 62 60 59 57 54 49 46 46 48 50 52 53 54 56 58 59 59 59 59 60 61 62 63 66 71 72 64 47 33 21 12 8
39 41 43 47 51 55 59 64 66 64 62 62 61 59 57 55 52 48 45 45 47 50 51 52 53 55 57 58 58 58 58 60 61 62 63 64 68 71 69 57 41 29 19 11
38 40 43 47 51 55 59 63 64 63 61 61 59 58 56 54 50 46 43 44 46 49 51 52 52 54 55 56 57 58 59 60 62 62 62 63 65 68 69 66 54 39 27 18
38 40 43 47 51 55 59 62 63 61 60 59 58 57 55 52 49 45 42 42 45 48 50 51 51 52 53 54 56 57 59 61 62 63 63 63 64 65 67 67 63 54 40 28
38 40 44 47 51 54 58 61 62 59 58 58 57 55 53 51 48 44 41 41 43 47 49 50 50 50 51 53 54 56 57 60 62 63 63 63 63 63 63 64 64 62 55 45
39 41 44 47 50 53 57 60 60 58 57 56 55 54 52 50 47 43 40 39 41 45 47 49 48 48 49 51 53 54 57 59 61 61 62 62 62 62 61 61 61 61 60 56
39 41 43 46 49 52 56 59 59 56 55 55 53 52 51 49 46 42 40 38 39 43 46 47 47 46 47 49 51 53 55 57 58 59 60 61 62 62 61 60 59 59 58 58
40 41 43 45 48 51 55 57 57 55 54 53 52 51 49 48 46 42 39 38 39 42 45 46 45 44 45 46 48 51 53 55 56 57 58 60 61 62 62 61 60 59 57 56
40 41 42 44 47 51 54 56 55 53 52 52 51 49 48 47 44 41 38 37 38 40 42 44 43 43 43 43 46 48 50 52 53 55 56 58 59 60 61 62 61 61 59 57
41 41 42 44 47 50 53 54 53 51 51 50 49 48 47 45 43 40 37 35 35 36 39 41 42 41 40 41 43 45 47 49 50 51 53 55 56 58 59 60 61 61 61 59
41 41 42 44 46 49 51 52 52 50 49 48 47 46 45 44 43 40 37 34 34 35 37 39 40 40 39 39 41 42 44 45 47 48 50 52 53 55 56 57 59 60 60 60
41 41 42 44 46 48 50 51 50 48 47 47 46 45 43 43 41 39 36 33 33 33 34 36 38 39 39 39 39 40 41 42 44 45 47 48 50 51 53 54 55 57 58 59
41 41 42 43 45 47 49 50 49 47 46 45 44 44 42 40 40 38 35 33 31 31 32 33 35 37 38 38 37 38 38 39 41 42 44 46 47 48 50 50 52 53 55 56
41 41 42 43 44 47 49 49 48 46 44 43 42 42 40 39 38 37 35 31 29 29 29 31 32 34 36 37 37 37 37 37 38 39 41 43 44 46 47 48 49 50 51 52
41 41 41 42 44 46 48 48 47 44 42 41 41 41 39 37 37 36 35 31 28 27 27 28 29 31 33 35 36 36 36 37 37 37 38 39 41 43 45 46 47 47 48 49
40 40 41 42 44 47 48 48 46 43 41 40 39 39 38 36 35 35 34 31 28 26 25 26 27 28 30 32 34 35 36 37 37 36 36 37 38 40 41 42 44 45 46 47
40 40 41 43 46 48 48 47 45 42 40 39 38 38 37 35 33 33 33 31 28 25 24 24 25 26 27 29 31 33 34 36 36 36 36 36 36 37 38 39 40 41 43 44

GEFSNGP_500_meanwind_024.txt.gz
Wind_Speed
25 27 28 31 33 35 38 42 46 50 56 61 66 71 74 75 75 76 75 74 72 68 63 62 63 65 65 64 61 59 58 59 61 62 62 62 62 63 62 60 56 50 42 35
24 25 27 30 33 36 39 43 47 52 57 62 67 71 74 75 75 75 74 73 70 65 61 61 63 64 64 63 60 58 58 60 62 63 63 64 64 66 66 61 53 43 33 25
30 30 31 33 37 40 41 44 49 54 58 63 68 72 74 74 74 74 73 71 68 63 60 60 63 64 64 62 60 58 59 61 63 64 65 66 68 70 68 59 46 33 22 14
36 36 35 38 39 42 44 45 50 55 59 64 69 72 73 73 73 73 71 70 66 61 58 60 62 64 63 61 59 58 59 62 64 65 66 67 70 72 68 56 41 28 16 8
42 43 41 40 42 45 47 47 51 56 60 65 69 73 73 72 72 71 70 68 64 59 57 59 62 63 62 60 58 57 59 62 64 66 67 68 71 73 68 55 40 27 16 7
45 46 46 45 46 46 48 50 54 57 61 65 69 71 72 71 70 70 69 67 62 58 57 59 61 61 61 59 58 58 60 63 65 67 68 69 72 74 69 57 42 29 19 10
48 48 46 49 48 48 48 51 54 57 61 64 68 71 71 70 69 68 67 65 61 57 56 58 59 60 60 59 58 58 60 63 65 67 68 69 71 74 71 61 46 32 22 13
53 55 53 53 51 49 49 50 53 57 60 64 68 70 70 68 68 67 66 64 60 56 55 57 58 59 59 58 58 58 60 62 64 66 68 68 69 71 71 66 52 37 26 17
52 54 55 55 52 50 49 50 53 57 60 63 67 69 68 67 67 66 65 63 59 55 54 56 57 57 57 57 57 58 59 60 62 65 67 68 68 69 70 69 61 47 34 23
52 55 56 55 53 50 49 50 53 56 59 63 67 68 67 66 66 65 64 62 58 54 53 54 56 56 56 56 57 57 57 58 60 63 66 68 68 68 69 69 67 59 45 33
52 55 57 56 54 51 50 50 53 56 59 62 66 67 66 65 64 64 63 61 57 53 52 53 54 54 54 55 55 55 56 57 59 61 64 67 68 68 68 69 68 66 59 47
52 56 59 58 56 53 50 51 53 56 58 61 64 66 65 64 63 62 61 60 56 52 50 51 52 53 53 53 54 54 54 56 57 59 61 64 66 68 68 67 66 65 63 59
52 56 59 59 57 53 51 51 53 55 58 61 63 64 64 63 62 61 60 58 55 52 49 49 50 51 51 51 52 52 53 54 56 57 59 61 63 65 66 66 66 64 63 62
52 56 59 60 58 54 51 51 52 55 57 60 62 63 63 62 61 60 59 57 54 51 48 47 48 49 49 49 50 50 51 53 54 55 57 58 60 62 64 65 65 65 63 62
52 56 59 61 59 55 52 51 52 54 56 59 61 62 62 61 60 59 58 56 54 50 47 46 46 47 48 48 48 48 49 50 52 53 54 56 57 59 61 63 64 65 64 63
53 56 60 61 60 56 52 51 51 53 55 58 60 61 61 59 58 57 56 55 53 50 46 44 44 45 46 46 47 47 47 48 49 51 52 53 54 56 58 59 61 63 64 64
53 57 61 61 59 56 53 50 51 52 54 57 59 60 60 58 56 55 54 53 52 49 45 43 42 43 44 45 45 45 45 45 46 48 49 51 52 54 55 57 58 60 61 63
53 57 61 61 58 56 53 51 50 52 54 56 58 59 59 57 55 54 53 52 50 48 45 41 40 40 42 43 44 44 44 43 44 45 46 48 49 51 53 54 56 57 58 60
54 58 61 61 58 55 52 50 50 51 53 55 58 59 58 56 53 52 51 50 49 47 45 41 39 38 39 41 42 42 42 42 42 43 44 45 47 48 50 52 54 55 56 56
55 58 61 60 57 54 52 49 49 50 52 55 57 58 57 55 52 51 50 49 48 47 45 41 38 37 37 38 40 41 41 41 41 41 42 43 44 46 47 49 51 53 54 54
56 59 61 60 56 53 51 49 48 49 51 54 57 57 56 54 51 49 49 48 47 46 43 41 38 36 35 36 37 39 40 40 40 40 41 42 42 44 45 47 49 50 52 52
57 60 61 59 55 52 50 48 47 48 51 54 56 57 55 52 50 48 47 46 45 44 42 40 38 36 34 34 35 36 38 39 40 40 40 41 41 42 43 45 46 48 49 50
58 60 61 58 54 51 49 47 47 48 50 54 56 56 54 52 49 47 45 45 44 43 41 40 38 36 34 33 33 34 35 37 38 39 40 40 41 42 42 43 44 46 47 48
59 61 60 56 52 50 48 46 46 47 50 54 55 55 54 51 48 45 44 43 43 42 41 39 38 36 35 33 32 32 33 35 36 37 38 39 40 41 42 42 43 43 44 46
60 60 58 54 50 48 46 46 46 47 50 53 54 55 53 51 47 45 43 42 41 40 40 39 37 36 35 34 33 32 32 33 34 35 36 37 39 40 40 41 42 42 43 44
60 59 55 52 49 47 46 45 46 48 50 53 54 54 52 50 47 44 42 41 40 39 39 38 36 36 35 34 33 33 32 32 33 34 34 36 37 38 39 40 40 40 41 42
60 56 53 49 47 46 45 45 46 48 50 52 53 52 51 50 47 44 41 40 39 38 38 37 36 35 35 34 34 33 33 33 33 33 34 34 35 36 37 38 39 39 39 40

GEFSNGP_500_meanwind_030.txt.gz
Wind_Speed
33 35 36 38 38 38 37 38 38 38 39 42 46 50 54 59 63 66 68 69 69 70 71 69 67 66 66 66 65 65 64 63 64 67 69 71 73 76 74 65 51 37 26 20
31 34 36 39 41 41 40 40 39 39 40 42 46 50 54 59 63 66 67 67 68 69 69 68 66 65 64 64 64 64 64 64 65 67 69 71 73 75 74 65 51 37 24 17
30 34 38 42 45 45 43 42 42 41 42 44 47 50 55 59 62 64 65 66 67 68 68 67 65 64 63 63 63 63 63 63 65 67 69 70 72 74 73 67 53 39 27 17
31 36 40 44 47 49 47 44 44 43 44 45 48 51 55 58 61 64 65 65 66 67 67 65 64 63 62 62 61 61 62 63 64 66 68 70 71 72 72 69 58 44 33 22
33 37 40 45 49 51 52 48 48 47 46 47 49 51 54 58 61 63 64 64 65 66 66 64 63 61 60 60 60 59 60 61 63 65 66 69 70 71 71 70 63 51 39 29
32 37 42 46 49 52 54 54 53 50 49 48 49 51 54 57 60 62 63 63 64 65 65 63 61 59 58 58 58 58 59 60 61 63 65 67 69 71 71 69 67 60 47 37
31 35 39 45 49 52 54 56 55 52 50 49 49 50 53 57 60 62 62 62 63 63 63 62 60 58 57 57 56 56 57 58 59 61 64 66 68 70 70 69 67 64 57 46
33 37 41 45 48 51 54 57 56 54 52 51 50 51 53 56 59 61 62 62 62 62 62 61 58 57 55 55 55 55 55 56 57 59 61 64 65 67 68 68 66 64 61 56
32 35 39 43 46 50 53 56 57 55 53 52 51 51 52 56 59 61 61 61 61 61 61 59 57 55 54 54 53 53 53 54 55 57 59 61 62 64 65 65 65 64 62 59
32 35 39 43 46 49 52 55 58 57 54 53 51 51 52 56 59 60 60 60 60 60 60 58 57 54 53 52 52 51 51 51 52 54 56 58 60 61 62 63 63 64 63 61
32 36 39 42 46 49 52 55 58 59 56 54 52 51 52 55 58 59 59 59 59 59 58 57 56 53 52 50 50 50 50 49 50 51 53 56 58 59 60 61 62 62 63 62
35 38 41 44 47 49 52 54 58 60 58 55 53 52 52 54 57 59 59 58 58 58 57 56 55 53 51 49 49 48 48 48 48 49 50 52 55 57 59 59 60 60 61 61
36 39 41 44 47 49 51 54 57 60 59 56 54 52 51 53 56 58 58 57 57 56 56 55 54 52 50 48 48 47 47 47 47 47 48 50 51 53 55 56 57 58 58 58
39 40 42 44 47 49 51 53 57 60 59 57 54 52 51 53 55 57 57 57 56 55 55 54 53 51 49 48 47 46 46 46 46 46 47 48 50 51 52 53 54 55 55 55
40 42 44 45 47 48 50 53 56 59 59 57 54 52 51 52 54 56 56 56 55 54 54 53 52 50 49 47 46 45 45 45 45 46 46 47 48 49 50 50 51 52 53 53
40 43 45 46 47 48 50 52 55 57 59 57 54 52 51 51 54 55 56 55 55 53 53 52 51 49 48 47 45 44 44 44 44 44 45 46 46 47 48 49 49 50 50 51
42 44 46 46 47 48 50 52 54 56 58 57 55 52 51 51 53 54 55 55 54 53 52 51 50 49 47 46 45 44 43 43 43 43 44 44 45 46 46 47 48 49 49 50
44 46 47 47 47 48 49 51 53 55 57 57 55 52 50 51 52 53 54 54 53 52 51 49 48 48 46 44 43 43 43 42 42 42 43 43 44 45 45 46 46 47 48 48
46 48 48 48 47 48 49 51 52 54 56 56 55 52 50 50 51 53 54 53 52 51 50 48 47 46 45 44 42 42 42 42 42 41 42 42 42 43 43 44 44 45 45 46
47 49 49 48 48 48 49 51 52 53 55 56 55 52 50 50 50 52 53 52 51 50 50 48 46 45 44 43 42 41 41 41 41 41 41 41 41 41 42 42 42 43 43 44
48 49 49 49 48 49 50 51 52 53 54 56 55 52 50 49 49 51 52 52 51 50 49 48 46 44 44 43 42 41 41 41 41 41 41 41 40 40 40 41 41 41 41 42
49 50 50 50 49 50 50 51 52 53 54 55 54 52 50 48 48 49 51 51 50 49 48 47 45 44 43 42 42 41 40 40 40 40 41 41 41 40 40 40 40 40 40 40
51 52 51 51 50 50 51 51 52 53 54 55 54 51 49 47 47 48 49 50 49 48 47 46 45 43 42 42 41 40 40 39 40 40 40 41 41 40 40 39 39 39 39 38
53 53 53 52 51 51 51 51 52 53 54 54 53 51 48 46 45 46 48 48 48 48 47 45 44 43 42 41 41 40 39 39 39 39 40 40 41 41 40 39 38 38 37 37
55 54 54 53 52 51 51 51 52 53 53 53 52 50 47 45 44 45 46 47 47 47 46 45 43 42 41 41 40 39 39 38 38 38 39 40 40 41 40 39 38 37 36 36
55 54 53 53 52 52 51 52 52 53 53 53 51 48 45 44 43 44 45 46 46 46 45 44 43 42 41 40 39 39 38 38 38 38 38 38 39 40 40 39 38 36 35 35
55 54 53 53 53 52 52 52 52 52 52 52 50 47 44 43 42 43 44 45 45 45 44 43 42 41 40 39 39 38 38 37 37 37 37 37 38 38 38 38 37 36 35 34

GEFSNGP_500_meanwind_036.txt.gz
Wind_Speed
13 17 20 24 28 32 35 39 42 44 47 49 50 51 51 51 52 53 56 59 61 63 65 67 69 70 71 70 69 67 66 65 65 65 66 68 70 71 72 72 71 67 60 49
14 17 19 22 26 30 34 38 41 45 48 51 53 53 53 53 54 54 56 59 61 63 64 66 68 69 70 69 67 66 65 64 63 64 65 66 68 69 70 71 71 69 64 55
15 17 19 21 25 28 32 37 42 45 49 52 55 56 56 55 55 55 57 59 61 62 64 65 67 68 68 67 66 65 64 63 62 62 63 64 66 67 68 69 69 69 66 61
17 18 21 24 26 29 32 37 41 44 49 53 56 58 58 58 57 56 57 59 60 62 63 64 65 66 67 66 66 64 63 62 61 61 62 63 64 65 66 67 68 68 66 64
20 21 21 24 28 31 34 36 40 44 49 53 56 59 60 60 59 57 57 59 60 61 62 63 64 65 65 65 65 63 62 61 60 60 60 61 62 63 65 65 66 67 66 64
23 25 26 27 30 33 36 38 42 46 49 53 56 59 61 62 60 58 58 59 60 61 61 62 63 64 64 64 64 63 61 60 59 59 59 60 60 62 63 64 64 65 66 65
25 26 28 30 32 34 36 40 43 46 49 52 55 59 61 63 62 60 59 59 60 61 61 61 62 62 63 63 63 62 60 59 58 58 58 59 59 60 62 63 64 64 64 64
27 28 30 31 33 35 37 40 42 45 48 51 54 58 61 63 63 61 60 59 60 60 60 61 61 61 62 62 62 61 60 58 58 57 57 57 57 58 59 60 61 61 61 62
30 29 32 33 34 36 38 40 43 45 48 51 54 57 60 63 64 63 61 60 60 60 60 60 60 60 60 61 61 60 59 58 57 57 56 56 56 56 57 58 58 59 59 59
32 31 34 35 36 38 40 42 44 46 48 51 53 56 60 62 64 64 62 60 60 59 59 59 59 59 59 59 60 59 57 56 56 55 56 55 55 55 55 55 56 57 58 58
35 34 36 35 38 40 42 44 45 46 49 51 53 56 59 61 64 64 63 61 60 59 58 58 58 58 58 58 58 58 57 55 54 54 54 54 54 54 54 55 55 56 56 56
37 38 40 38 40 42 44 45 46 47 49 51 53 55 58 60 63 64 64 62 60 58 57 57 57 56 56 57 56 56 56 54 53 52 52 53 53 54 54 53 54 54 55 55
40 41 42 41 42 44 46 47 47 48 49 51 53 55 57 59 61 63 64 62 60 58 57 56 56 55 55 55 55 55 54 53 52 51 51 51 51 51 51 52 52 52 52 52
40 42 43 43 44 46 48 49 49 49 50 51 53 54 56 58 60 62 64 63 60 58 56 55 55 54 54 54 54 53 53 52 51 50 50 50 50 50 50 49 49 49 50 50
39 43 45 45 46 47 49 50 50 50 51 52 53 54 55 57 59 61 63 63 61 57 55 54 53 53 53 52 52 52 52 51 50 50 49 49 49 49 50 49 48 47 47 47
41 44 45 46 47 49 50 51 51 51 52 52 53 53 55 56 58 60 62 62 61 57 54 53 52 51 51 51 51 51 50 50 49 49 48 48 48 48 48 48 48 47 46 45
44 44 45 47 48 49 51 52 53 53 53 53 53 53 54 55 57 59 60 61 61 58 54 52 51 50 50 49 49 49 49 49 48 48 47 46 46 47 47 47 47 47 46 45
49 48 48 49 50 51 52 53 54 54 54 53 52 52 53 55 57 58 59 61 61 57 53 51 49 49 48 48 48 48 48 48 48 47 46 46 45 45 46 46 46 46 45 44
55 54 53 53 52 52 53 54 55 55 55 53 52 52 53 54 55 57 58 59 60 57 53 50 48 48 47 47 46 47 47 47 47 46 46 45 44 44 45 45 45 44 44 43
62 60 59 58 56 54 54 54 56 56 55 54 52 52 52 53 54 56 57 58 59 57 53 49 47 46 46 45 45 45 45 46 46 46 45 45 44 44 43 43 43 43 43 42
68 65 63 60 57 55 54 55 56 56 56 54 53 52 52 53 53 54 55 57 58 57 52 48 46 45 44 44 44 44 44 44 45 45 44 44 43 43 42 42 42 42 41 41
71 68 66 62 59 56 55 56 57 57 56 55 53 52 52 52 53 53 54 55 57 56 51 47 44 44 43 43 43 43 43 43 43 43 43 43 43 42 42 41 41 41 40 40
68 66 64 62 59 57 57 57 57 57 57 55 53 52 51 52 52 52 53 54 56 54 50 45 43 42 42 42 42 41 41 42 42 42 42 42 42 41 41 40 40 40 39 38
65 63 60 58 57 56 56 57 58 58 57 55 53 52 51 51 51 51 52 54 55 53 48 44 42 41 41 40 40 40 40 40 41 41 41 41 41 40 40 39 39 39 38 37
60 57 56 54 53 53 55 57 58 58 57 55 53 52 51 50 50 50 51 53 53 51 47 43 40 39 39 39 39 39 39 39 39 40 40 40 40 39 39 38 38 37 37 36
57 53 52 52 52 53 55 57 58 57 56 55 54 52 51 50 49 50 51 52 51 49 45 41 39 38 38 38 38 38 38 38 38 39 39 39 39 38 38 37 37 36 35 35
57 53 51 51 51 53 54 55 56 56 55 55 54 52 50 49 49 50 50 51 49 46 43 39 37 36 36 37 36 36 37 37 37 38 38 38 38 37 37 36 35 35 34 33

GEFSNGP_500_meanwind_042.txt.gz
Wind_Speed
20 19 18 19 20 21 23 26 28 30 32 35 38 41 44 47 50 53 57 60 63 66 67 67 67 67 66 66 68 68 70 71 71 71 68 66 65 64 63 63 64 65 65 66
23 23 22 21 22 23 25 27 29 31 33 36 38 42 44 47 50 53 57 60 64 66 68 69 68 68 67 67 67 68 69 70 71 70 68 66 64 63 62 62 62 63 64 65
26 26 26 24 24 25 26 28 31 32 35 37 39 42 45 47 50 53 57 60 64 66 69 70 70 69 68 67 67 68 68 69 70 70 68 65 63 63 62 61 61 61 62 63
30 29 29 27 27 28 28 30 32 33 35 38 40 42 46 48 50 53 57 60 63 66 69 70 71 70 68 67 67 67 67 68 69 69 67 65 63 62 62 61 60 60 60 61
34 33 32 29 30 31 32 31 33 35 36 39 42 43 45 48 50 52 56 59 62 65 68 70 71 71 69 67 67 67 67 67 68 68 66 64 62 61 61 60 59 59 58 58
37 37 36 32 33 35 36 34 35 37 38 41 44 46 47 48 50 52 55 59 62 65 67 69 71 71 70 68 66 66 66 66 67 67 66 63 61 60 60 59 59 58 58 57
40 40 38 35 36 37 37 38 38 39 41 42 45 47 48 49 51 52 55 58 61 63 66 68 70 71 70 68 66 65 65 65 66 66 65 63 61 60 59 59 58 57 57 56
42 42 38 37 37 38 40 40 40 41 42 44 45 47 48 49 50 52 54 56 59 62 65 67 69 70 70 68 66 65 64 64 65 65 64 62 60 59 58 57 56 55 54 54
44 41 38 37 38 40 42 42 43 43 44 45 46 47 49 49 50 51 53 55 58 61 63 66 68 69 69 69 66 64 64 63 64 64 64 62 60 58 56 55 54 53 52 52
44 40 36 37 39 41 43 44 45 45 46 47 48 48 49 50 50 50 52 54 57 59 62 64 67 68 69 68 66 64 63 62 63 63 63 63 60 57 55 53 52 52 51 51
46 39 36 37 39 41 43 45 46 47 48 48 49 49 50 50 50 50 51 53 55 58 60 63 65 66 67 68 66 63 62 61 61 62 62 62 61 57 55 53 51 51 50 50
48 42 43 41 40 41 44 45 46 48 48 49 50 50 50 50 50 50 50 52 55 57 59 61 64 64 66 67 66 63 61 60 60 60 61 61 60 58 55 52 51 50 50 49
51 49 49 46 44 44 46 47 47 49 50 50 50 51 51 51 51 50 50 52 54 56 57 59 62 63 64 65 65 62 60 59 59 59 59 59 58 57 55 53 51 49 48 48
56 56 56 53 52 50 50 49 50 50 51 51 51 52 52 52 52 51 52 53 55 56 56 57 59 61 62 63 64 62 59 58 57 57 58 58 57 56 53 51 49 48 47 46
62 63 63 60 58 55 54 54 55 54 53 53 53 53 53 54 53 53 54 55 55 55 55 56 57 59 60 61 63 61 58 56 56 56 56 56 56 55 53 50 48 46 45 44
68 69 69 67 64 61 60 60 59 58 57 57 56 55 55 56 55 55 56 56 56 55 54 55 55 57 58 59 61 60 57 55 54 54 54 55 55 54 53 50 48 45 43 42
72 72 72 72 69 66 64 63 63 62 61 60 59 58 58 58 58 58 58 59 57 55 54 53 53 54 56 57 59 58 56 53 52 52 53 53 53 53 52 50 47 45 42 40
69 70 71 72 71 70 67 64 64 63 63 63 63 62 60 60 59 59 60 60 58 54 53 51 51 52 54 55 57 57 54 51 50 50 51 51 52 52 52 50 47 44 42 40
62 64 65 67 68 69 68 67 66 65 64 64 64 63 62 62 61 61 60 59 56 53 51 49 49 49 51 53 55 55 52 50 49 48 49 49 50 51 51 50 47 44 42 39
60 61 63 63 63 64 64 64 64 64 63 64 64 62 61 60 61 61 60 57 54 52 50 47 46 47 49 51 53 53 51 48 47 46 47 47 48 49 50 49 47 44 41 38
60 62 63 64 64 64 65 64 64 64 62 62 62 61 60 60 60 60 59 57 54 52 48 45 44 45 47 49 50 51 48 46 45 44 45 45 46 48 48 48 47 44 41 38
64 65 65 65 65 65 64 63 63 63 62 61 59 58 57 57 58 58 58 56 54 51 47 43 42 43 44 46 48 48 46 44 43 42 43 43 45 46 47 47 46 44 41 38
65 66 67 68 67 66 65 63 61 60 60 59 58 55 54 54 55 56 56 54 52 49 45 41 40 41 42 44 45 45 44 42 41 40 41 42 43 44 45 46 45 44 41 38
67 66 66 65 65 65 63 61 59 58 57 56 56 54 53 52 53 54 53 52 50 47 43 40 39 39 40 42 43 42 41 39 39 38 39 40 41 42 44 45 45 43 41 37
67 66 65 65 64 62 61 59 57 55 55 54 53 53 53 52 53 53 53 51 48 44 41 39 38 37 38 40 40 39 38 37 37 36 37 38 39 41 42 43 44 43 41 37
68 67 66 64 62 61 59 57 55 53 53 51 51 53 53 53 53 53 51 49 46 42 39 37 36 35 36 37 37 37 36 35 35 35 35 36 37 39 40 42 42 42 40 37
67 65 63 61 59 58 57 55 53 51 51 50 51 53 53 53 52 51 49 46 43 39 37 35 34 34 35 35 34 34 33 33 33 33 34 34 35 37 39 40 41 41 40 37

GEFSNGP_500_meanwind_048.txt.gz
Wind_Speed
32 34 36 35 33 34 35 36 38 36 36 34 37 39 41 43 45 46 48 50 52 54 55 56 59 61 64 66 69 72 74 76 77 78 76 75 75 75 74 71 69 67 65 65
34 35 39 39 35 36 38 37 39 40 38 37 41 41 42 44 46 47 49 51 52 54 55 56 58 60 63 66 68 71 73 75 77 77 76 75 74 74 73 71 68 66 64 64
37 38 41 40 36 38 40 40 41 42 41 42 43 44 44 46 48 49 50 51 53 55 56 56 58 59 62 65 67 70 72 74 76 77 76 74 73 73 72 71 68 65 63 62
41 42 44 39 38 39 41 41 42 43 43 45 46 46 46 48 50 50 51 52 53 55 55 56 57 58 61 63 66 69 71 73 75 76 76 74 73 72 72 70 68 65 62 61
44 45 46 41 39 40 43 43 42 44 45 47 48 48 46 48 50 51 52 53 53 54 55 56 56 57 59 62 65 68 70 72 74 75 75 74 72 71 71 69 67 65 62 60
45 47 48 43 40 41 43 44 43 45 46 47 49 50 49 50 51 52 53 53 54 54 54 55 56 57 58 61 64 67 69 71 73 74 74 74 72 70 70 69 67 64 62 59
47 50 51 45 43 43 43 42 45 46 47 49 50 51 52 53 53 54 54 54 55 55 55 55 56 57 58 60 63 66 68 70 71 72 73 73 71 69 68 67 66 64 61 59
49 52 51 45 45 43 43 44 46 48 50 51 52 53 53 54 55 55 55 55 56 56 56 56 56 57 58 60 63 65 67 69 70 71 71 72 70 68 67 66 65 63 60 58
55 55 51 49 47 46 46 48 49 51 52 54 55 55 55 55 56 56 56 57 57 57 57 57 57 58 59 60 63 65 67 67 68 69 69 70 69 67 66 65 64 62 59 57
61 57 54 53 51 50 51 53 53 54 55 57 58 58 58 58 58 58 58 58 58 58 58 58 58 59 60 61 63 65 65 66 66 67 67 68 67 66 64 63 62 61 59 56
65 61 60 57 56 56 56 57 57 57 58 59 60 60 60 60 59 59 59 59 59 60 60 59 59 59 60 61 63 64 64 64 64 64 65 65 65 64 63 62 62 61 59 56
66 63 65 63 60 60 61 60 60 60 61 60 61 62 61 61 61 61 62 61 61 61 61 61 60 60 61 62 63 64 63 62 62 62 63 63 63 62 61 61 61 61 59 56
65 64 66 65 63 63 63 63 62 62 62 62 62 62 63 62 62 62 63 63 62 62 62 62 61 60 61 62 63 63 62 61 60 59 60 60 60 60 59 58 59 59 58 55
60 62 64 62 61 60 61 60 60 60 60 60 60 60 61 61 60 61 62 63 63 62 62 62 62 61 61 62 62 62 61 59 57 56 57 58 58 57 56 56 56 56 57 55
53 54 56 56 55 54 54 55 55 55 56 56 56 56 56 56 56 57 58 59 60 60 60 60 60 59 60 61 61 60 58 56 55 53 54 54 55 54 53 53 54 54 55 53
49 50 51 51 51 51 50 51 51 51 52 52 52 53 53 53 53 54 54 55 56 57 57 57 57 58 58 59 59 57 55 53 52 50 50 51 52 51 51 51 51 52 52 52
45 46 47 48 47 48 48 49 50 49 50 50 51 51 51 51 51 52 52 53 54 55 55 55 55 55 56 56 57 55 53 51 49 47 47 48 49 49 48 48 49 49 50 50
37 39 40 42 44 45 46 48 49 50 50 50 50 50 50 51 51 51 52 53 53 53 54 54 54 54 54 54 54 52 50 48 46 44 44 45 46 46 45 45 46 47 48 48
38 39 40 42 44 46 47 48 50 50 50 50 50 51 51 52 53 53 53 54 54 53 53 53 53 53 52 52 52 51 48 45 43 41 41 42 43 43 43 42 43 44 46 46
42 44 45 46 47 49 50 51 51 52 53 54 54 54 55 55 55 54 54 53 53 53 53 52 52 51 51 50 50 49 46 44 41 39 39 39 40 40 40 40 40 42 43 44
47 48 49 50 51 52 54 56 57 58 58 59 60 59 59 59 57 56 55 53 52 53 52 51 50 50 50 49 47 45 43 42 39 37 36 37 37 37 37 37 38 39 41 42
50 51 52 53 55 56 58 60 61 62 63 63 63 63 61 60 59 58 56 55 53 52 51 50 49 49 48 47 45 43 41 40 37 35 34 34 34 35 34 35 35 37 39 40
53 54 56 57 59 61 62 64 66 66 66 66 65 65 64 63 62 61 58 56 55 52 50 49 48 47 47 46 44 41 39 37 35 33 32 32 32 32 32 32 33 35 36 38
56 57 59 61 63 65 66 67 68 68 68 68 68 68 68 67 64 63 61 58 55 53 50 48 47 46 45 43 41 39 36 35 33 31 30 30 29 29 30 30 31 32 34 36
58 59 61 63 65 67 69 70 69 69 69 69 69 69 69 68 66 62 59 56 53 51 48 46 45 44 42 41 39 36 33 32 31 29 28 28 27 27 28 28 29 30 32 34
58 59 61 64 66 68 68 68 67 67 68 68 68 67 66 64 61 57 54 51 49 47 44 42 41 40 39 37 35 33 31 30 28 26 26 25 24 25 26 26 27 28 30 32
57 59 61 62 63 64 65 65 65 65 66 67 65 62 59 56 52 47 45 43 42 41 39 38 37 36 34 33 32 31 29 28 25 24 24 23 22 23 24 24 25 26 28 30

GEFSNGP_500_meanwind_054.txt.gz
Wind_Speed
37 36 39 41 39 38 40 42 46 45 46 43 41 45 47 49 50 49 49 49 50 50 51 52 53 54 54 55 56 56 57 58 60 61 64 66 69 72 73 73 72 72 72 71
40 38 42 44 40 39 40 42 44 46 46 42 44 47 48 49 50 50 50 50 51 52 52 53 54 55 55 56 57 57 58 59 61 62 64 66 69 71 72 72 71 71 70 70
45 43 46 45 39 40 41 42 43 45 45 44 46 47 48 48 49 50 50 51 52 52 53 54 55 56 56 57 57 58 59 60 61 63 65 67 69 70 70 70 70 69 69 68
49 49 51 45 42 42 44 44 44 45 45 46 47 48 47 48 50 51 51 52 53 54 55 56 56 57 58 58 59 59 60 61 62 64 66 68 69 69 69 68 68 68 67 66
52 54 55 48 43 45 48 48 45 48 48 48 49 49 48 50 51 52 53 54 55 56 57 57 58 59 59 59 59 60 61 62 63 65 66 67 67 67 67 67 66 66 66 65
54 57 59 51 48 49 51 51 49 51 51 51 51 51 51 51 52 53 54 56 57 58 58 59 59 60 59 59 60 62 63 63 64 64 65 66 66 66 66 65 65 64 64 63
56 60 60 53 51 52 54 54 53 54 55 56 56 56 56 56 56 57 58 59 60 60 60 60 60 60 60 59 60 62 62 63 63 63 64 64 65 64 64 63 62 62 61 61
58 61 59 55 55 55 56 57 58 59 59 60 61 60 60 60 60 60 60 60 61 61 60 59 59 60 60 60 60 61 62 62 62 62 62 62 62 62 61 61 60 59 59 59
59 60 58 58 58 58 59 61 62 63 62 62 62 61 61 61 61 61 61 61 61 60 60 59 59 59 59 59 60 60 60 60 61 61 61 60 60 58 57 57 58 57 56 56
57 56 56 57 58 59 61 63 64 64 63 61 61 60 59 58 59 60 60 59 59 58 58 58 58 58 58 58 59 59 59 60 60 59 59 58 57 56 55 55 55 54 54 53
49 48 50 51 53 55 58 60 60 60 60 59 59 58 58 57 57 57 56 55 55 55 55 55 55 55 56 57 58 58 58 58 57 57 56 55 54 53 53 53 53 52 51 51
45 43 47 47 48 50 52 53 54 55 55 55 56 55 54 54 54 54 54 53 53 53 53 52 53 53 54 54 54 55 55 56 56 55 54 53 52 50 50 51 50 49 48 48
42 42 43 44 45 46 48 49 50 52 53 53 53 53 53 53 52 51 51 51 52 51 51 52 52 52 52 52 53 53 54 55 55 54 53 51 50 48 48 48 47 47 46 45
39 40 40 41 42 43 43 44 44 46 48 49 50 51 52 52 51 50 51 51 51 51 51 51 51 51 52 52 52 53 53 53 52 51 50 49 48 47 46 45 44 44 43 43
39 40 40 40 39 39 40 40 40 41 42 44 45 46 47 47 47 48 49 50 51 51 51 51 51 51 51 50 50 51 51 51 50 49 48 47 46 45 44 43 42 41 41 41
41 41 42 41 41 41 42 42 42 43 43 44 44 45 46 47 48 49 50 51 52 52 52 53 52 51 50 49 49 50 51 50 49 48 47 46 45 43 42 41 40 39 39 39
43 44 44 44 44 45 46 46 46 46 47 47 47 47 48 49 50 51 52 53 54 54 54 53 52 52 51 51 51 51 51 51 49 48 46 45 43 40 39 38 38 37 37 37
46 46 46 47 47 48 49 49 50 50 51 51 51 52 52 53 54 54 55 56 56 56 56 56 55 55 55 54 52 51 50 49 48 46 44 43 41 39 37 36 35 35 35 35
47 47 49 49 50 51 51 52 53 54 54 55 55 55 56 57 58 59 60 59 59 58 58 59 59 58 57 56 54 53 51 49 47 45 42 41 39 37 35 33 33 33 33 33
47 49 50 51 52 54 54 55 56 56 56 57 58 58 59 61 62 62 61 61 62 62 61 60 60 59 58 57 54 52 50 48 46 43 41 40 37 35 32 31 30 30 30 31
49 50 51 52 53 54 56 57 57 56 57 58 59 60 61 62 63 64 64 63 63 63 62 61 60 59 57 56 53 51 49 47 44 41 39 37 34 32 30 29 28 28 28 28
49 50 51 53 54 55 56 57 57 57 58 59 60 61 62 62 63 62 62 62 61 60 60 59 58 57 55 53 51 49 47 44 41 38 36 34 31 29 28 27 26 25 25 26
48 49 51 52 53 54 54 55 56 57 57 58 59 60 61 61 60 60 58 58 58 58 57 55 54 53 51 50 48 46 44 40 37 35 33 31 29 27 25 24 23 23 23 23
49 49 50 51 52 53 53 53 54 54 55 56 57 58 59 58 57 57 58 57 56 55 54 52 50 48 47 46 43 40 38 36 34 32 31 29 26 24 23 21 21 20 20 20
49 50 51 51 52 51 51 51 52 52 53 54 55 56 57 58 57 56 56 56 55 55 54 51 49 46 43 40 37 34 33 32 31 30 28 25 23 21 20 19 19 18 17 18
50 51 51 51 52 51 51 51 51 51 52 52 53 54 54 55 55 55 55 55 55 53 50 46 43 40 37 34 32 31 30 29 28 27 25 23 21 19 18 17 17 16 15 15
50 50 50 50 50 50 50 50 50 50 50 51 50 51 52 52 52 53 52 51 49 46 43 39 36 33 31 28 26 25 26 26 26 24 23 21 19 17 16 15 14 14 13 13

GEFSNGP_500_meanwind_060.txt.gz
Wind_Speed
45 44 45 47 46 44 45 45 49 51 52 51 52 54 54 54 55 55 55 55 55 55 55 55 56 56 57 57 58 58 58 59 60 62 62 63 63 63 63 64 65 66 67 67
48 46 48 50 46 44 46 47 50 52 53 51 54 55 57 58 58 58 58 57 57 56 56 56 57 57 57 57 58 58 59 60 61 62 63 63 63 63 63 64 65 65 65 64
51 49 52 50 46 46 47 48 50 52 53 54 56 57 58 59 59 59 58 58 57 56 56 57 57 58 58 58 58 58 59 61 62 62 62 62 63 62 62 63 64 64 63 62
52 52 54 50 49 49 50 50 51 52 54 57 58 58 60 60 60 59 60 59 59 58 58 58 59 59 58 58 58 59 60 61 61 61 61 62 61 61 62 62 62 61 60 60
52 53 54 50 50 53 54 53 52 55 56 58 59 58 59 59 60 61 61 60 60 60 60 60 59 58 58 58 59 59 59 59 60 60 60 60 60 60 59 59 58 58 58 57
49 52 54 51 51 52 54 54 54 55 56 57 58 58 56 56 58 58 59 59 60 60 60 59 58 58 58 58 58 58 58 58 58 58 58 57 58 57 57 57 56 55 55 55
48 51 52 51 52 53 54 55 55 55 56 56 56 56 54 54 54 55 56 57 58 58 58 57 57 57 56 55 56 56 55 55 55 55 55 55 55 54 54 53 53 53 52 52
48 50 49 50 52 53 53 54 54 54 54 54 53 53 53 53 54 54 54 55 56 56 55 54 54 54 53 53 54 53 53 52 52 53 53 53 52 51 51 50 50 50 49 49
48 48 48 49 51 52 52 53 52 52 51 51 51 51 52 52 51 51 51 52 52 51 50 50 51 51 51 51 52 51 50 50 51 52 52 51 50 49 48 48 48 48 47 48
48 47 47 49 50 50 51 51 51 51 51 50 51 51 52 51 50 49 49 48 48 47 46 47 48 49 49 50 50 50 50 51 52 51 51 50 49 48 47 47 46 46 45 46
50 49 49 49 49 50 50 51 51 51 50 50 51 50 49 48 48 48 47 47 47 46 46 45 46 47 48 49 49 50 51 52 52 52 51 51 49 48 47 47 46 45 44 44
52 52 54 51 52 52 53 52 52 51 50 50 50 49 48 48 49 49 49 48 47 46 47 47 47 48 49 51 52 52 53 53 53 52 51 50 49 48 48 47 45 44 43 44
55 55 55 54 54 54 54 54 53 52 52 51 50 50 50 50 50 50 49 49 49 48 49 50 50 51 52 52 52 53 54 54 53 52 51 50 49 48 47 46 44 43 43 43
57 57 56 55 55 54 55 55 54 54 53 52 52 52 52 52 51 51 51 51 51 51 52 52 52 53 54 54 55 56 56 56 55 54 52 50 49 48 47 45 44 43 42 41
58 58 57 57 56 55 55 55 55 55 54 53 53 53 53 53 52 51 52 52 53 53 53 53 53 54 55 56 56 57 57 57 57 55 53 52 51 49 46 44 43 42 41 39
58 58 57 56 55 55 55 55 55 55 55 54 54 53 53 53 52 52 53 54 54 53 53 54 54 55 56 57 57 57 57 57 56 55 53 52 50 48 46 43 42 40 39 37
55 55 54 53 53 53 53 54 54 54 54 54 53 53 53 52 52 53 53 53 53 53 54 55 56 57 57 58 58 57 56 55 55 54 53 51 48 47 44 42 40 38 36 35
52 52 52 51 51 51 52 52 52 53 53 53 53 53 53 53 52 51 51 51 52 53 55 56 57 57 57 57 56 56 55 55 54 52 50 49 46 44 41 39 37 36 34 33
48 48 49 49 50 50 50 51 51 52 52 52 52 51 50 50 51 51 50 51 52 53 53 54 55 55 55 55 55 55 54 53 51 50 48 46 43 40 38 36 34 33 32 30
46 46 46 47 47 48 48 49 49 49 49 49 48 48 48 48 49 49 49 50 52 53 53 53 54 54 54 54 54 54 53 52 51 49 46 43 40 37 35 33 32 30 28 28
44 45 45 46 46 47 47 48 48 47 47 47 48 47 47 47 47 48 48 48 49 51 52 52 53 53 54 54 54 53 52 51 50 47 43 40 37 34 32 30 28 27 26 25
45 45 45 46 46 46 46 47 47 47 46 46 46 46 46 45 46 47 48 49 49 50 50 51 52 53 54 54 53 51 50 48 46 43 39 36 34 31 28 27 25 24 23 22
45 45 45 46 46 45 45 45 45 44 44 44 44 44 44 44 45 45 45 46 47 48 49 50 51 53 54 53 51 49 48 46 43 39 35 33 29 26 24 22 21 21 20 20
44 44 44 45 45 44 44 44 43 43 43 43 43 43 44 43 43 45 45 46 47 47 48 50 51 52 51 50 48 46 44 42 38 34 30 27 25 22 21 19 18 17 17 17
44 44 44 44 44 44 43 42 42 41 41 41 41 42 43 43 43 43 43 44 45 46 47 49 50 49 48 47 44 42 40 36 31 27 24 21 20 19 18 16 15 15 14 14
45 44 44 44 43 43 42 41 40 39 40 39 39 40 41 42 42 42 42 43 44 45 46 47 46 45 45 43 40 38 34 29 24 20 17 15 15 14 14 13 13 13 13 12
45 45 44 43 42 41 41 40 40 39 39 38 38 38 39 40 40 40 41 42 42 43 43 43 43 42 41 39 36 32 27 23 18 15 12 11 10 11 11 11 11 11 11 10

GEFSNGP_500_meanwind_066.txt.gz
Wind_Speed
35 35 36 37 36 36 38 40 43 43 44 44 46 48 48 48 49 49 50 50 50 50 50 49 49 48 48 48 48 48 49 51 53 54 55 56 56 56 56 57 58 58 58 58
33 33 35 35 33 34 37 39 41 42 43 44 47 48 48 49 49 49 49 49 49 49 48 48 48 48 48 48 49 50 52 53 54 55 55 55 55 55 56 56 57 57 57 56
34 34 35 33 33 35 37 38 40 42 43 45 46 47 47 47 48 49 49 48 48 47 47 47 48 48 48 49 50 51 52 53 54 54 54 54 54 54 55 55 55 54 54 54
36 36 37 35 35 37 39 40 41 42 44 45 45 46 47 47 48 48 48 47 47 47 48 48 49 49 50 50 50 51 52 52 52 52 52 52 52 52 52 52 52 53 53 53
38 40 40 36 39 41 43 42 44 45 46 46 47 47 48 49 48 49 49 49 49 49 49 49 50 50 50 50 50 50 50 49 50 49 49 49 49 50 50 51 51 52 52 53
39 42 43 42 44 46 47 48 48 49 49 50 51 51 50 51 50 50 50 50 50 49 49 49 50 50 50 50 50 49 48 48 48 47 46 47 48 49 49 49 50 52 53 53
41 44 45 46 48 50 51 53 53 53 54 54 55 55 55 55 55 54 53 52 52 51 50 50 50 50 50 50 50 49 49 49 48 48 48 49 49 50 50 51 52 53 53 53
46 48 48 50 52 54 55 56 57 57 57 58 58 59 59 59 58 57 56 55 54 53 52 51 51 51 50 50 50 49 49 48 48 49 50 50 51 52 52 53 53 54 54 53
50 51 51 54 56 58 59 60 60 61 61 62 62 62 62 62 61 59 58 57 56 54 53 53 52 52 52 51 50 49 48 49 49 50 51 52 53 53 53 54 54 54 53 52
54 54 55 58 59 61 62 63 64 64 65 66 65 65 65 64 63 61 60 58 57 56 55 54 53 53 53 52 51 51 50 51 51 51 51 52 53 53 54 55 55 54 53 52
58 58 60 61 63 64 65 66 67 67 68 68 68 67 66 65 63 62 60 59 57 56 56 55 54 54 54 54 53 52 52 51 51 51 51 52 53 54 55 55 55 54 53 51
62 63 65 65 67 68 69 69 70 70 70 69 68 67 65 63 62 61 60 59 57 56 56 55 55 54 54 54 53 53 52 52 52 53 54 54 55 55 55 55 55 54 52 51
65 66 68 68 69 70 71 71 71 70 69 67 66 65 63 61 60 59 58 57 56 56 55 54 53 53 54 53 53 52 52 52 53 54 54 55 55 55 54 54 54 53 51 50
69 69 69 69 70 70 70 69 68 67 65 64 62 61 60 59 58 57 56 56 55 54 54 54 53 53 53 52 52 52 52 53 54 54 54 54 54 54 53 53 52 50 49 47
70 70 69 69 68 67 66 65 63 62 61 60 59 58 58 57 55 55 54 54 53 53 53 53 53 52 52 52 51 51 52 53 53 53 53 53 53 52 52 51 50 49 47 46
67 67 65 64 62 61 59 59 58 57 56 56 55 55 54 54 53 53 52 52 52 52 52 52 51 51 51 51 51 51 51 52 52 52 51 51 51 51 50 49 48 47 45 43
62 60 58 56 55 54 54 54 53 53 52 52 52 52 52 52 51 51 51 51 52 52 51 51 50 50 50 50 50 50 50 50 51 51 51 51 50 49 49 48 47 45 43 41
55 53 52 52 51 50 50 50 50 50 50 51 51 51 51 51 51 51 50 50 50 49 49 49 48 48 48 49 49 49 50 50 50 50 50 49 49 48 48 47 45 43 41 39
50 49 49 48 48 48 48 48 49 50 51 51 51 51 51 52 51 51 49 49 48 47 46 46 46 46 46 47 48 49 49 49 49 49 49 49 48 47 47 45 43 41 38 35
47 46 46 47 47 47 48 48 49 49 50 51 51 51 51 51 50 49 48 47 47 46 44 44 44 45 45 46 47 48 48 48 48 48 48 48 47 46 44 42 39 36 33 30
46 45 45 46 46 47 48 49 49 49 49 50 50 50 50 49 48 47 46 45 44 44 44 43 43 44 45 45 46 47 47 47 47 46 46 45 43 43 40 37 33 30 27 24
45 46 46 46 46 46 47 48 48 49 49 49 50 49 48 47 46 44 44 44 42 42 42 42 42 43 44 44 45 45 45 45 44 43 42 40 38 36 33 30 27 23 20 19
45 46 46 46 47 46 46 47 47 48 48 48 47 47 46 45 44 42 41 41 41 41 40 40 40 41 42 42 43 43 43 42 41 39 38 35 33 30 27 23 21 18 15 14
45 45 45 46 47 46 46 47 47 47 47 46 45 45 45 43 41 41 40 39 39 39 38 38 39 39 40 41 41 41 40 39 38 37 34 31 28 25 21 19 17 14 12 11
44 44 45 46 46 47 46 46 46 45 45 44 43 43 43 42 40 39 38 38 37 36 36 36 37 37 38 38 39 38 37 36 35 32 29 26 23 21 19 17 14 12 9 8
44 44 44 45 45 45 45 44 44 44 43 42 41 41 40 40 39 38 37 36 35 35 34 34 34 35 35 36 37 35 33 32 30 28 25 23 20 18 16 14 11 9 6 5
43 43 43 43 43 44 44 44 43 43 43 42 41 39 38 37 36 35 35 34 33 33 32 32 32 33 34 34 33 31 30 28 26 24 22 19 17 15 12 11 9 6 4 3

GEFSNGP_500_meanwind_072.txt.gz
Wind_Speed
29 29 29 28 28 29 32 33 36 34 35 36 38 38 40 42 44 46 46 47 49 50 52 53 54 55 55 56 56 57 57 57 56 56 57 57 57 58 58 59 59 59 59 59
28 28 29 27 28 30 31 33 36 37 37 39 41 42 44 45 48 49 50 52 53 55 56 57 58 59 59 59 60 60 60 59 58 57 57 58 58 58 58 59 59 59 59 59
29 29 31 29 30 32 34 35 37 39 41 43 44 46 48 50 52 54 55 56 58 59 60 61 63 63 64 63 63 63 62 61 60 59 58 58 58 58 58 59 59 59 59 59
32 32 33 32 32 34 37 38 40 43 45 46 48 49 51 54 56 57 59 61 62 64 65 66 67 67 67 66 65 65 63 62 61 60 60 59 59 58 58 57 57 57 57 57
36 37 36 33 35 38 41 43 44 46 48 50 52 54 55 57 60 62 64 66 67 69 70 70 70 70 69 68 66 65 64 63 62 61 60 59 58 58 58 57 56 56 55 56
37 40 40 39 41 43 46 48 49 51 53 55 57 59 60 62 65 67 69 70 72 73 73 73 72 71 70 68 66 64 63 63 62 61 61 60 59 59 58 58 57 56 56 56
39 43 44 44 46 48 50 53 54 56 58 60 62 65 66 68 70 72 74 75 75 76 76 74 73 71 69 66 64 63 62 61 61 61 61 61 60 59 58 57 56 56 55 54
42 45 46 48 50 52 55 57 59 60 62 64 66 69 71 73 74 75 77 77 77 76 75 72 70 69 66 64 63 62 61 60 60 60 60 60 59 58 57 56 55 55 54 53
45 47 49 52 54 57 59 61 63 65 66 68 70 72 74 75 77 78 78 78 76 75 72 69 67 66 65 63 62 61 60 59 59 59 58 57 56 55 54 54 54 53 52 52
49 50 52 54 57 60 62 64 66 68 70 72 74 75 76 77 78 77 77 75 73 71 69 66 64 63 63 62 60 59 58 58 57 56 54 53 53 53 52 52 51 51 51 51
54 55 58 59 61 63 65 67 69 71 73 75 76 76 77 77 76 75 73 71 70 67 65 63 62 61 60 59 58 57 56 55 54 53 52 51 50 51 50 50 50 50 50 50
58 59 62 63 65 67 68 70 72 73 74 75 76 76 75 74 73 71 68 66 64 63 62 61 60 58 57 57 56 56 54 53 52 51 50 49 49 48 48 48 48 49 49 49
61 62 64 66 68 69 71 72 73 74 74 74 73 73 72 70 68 66 64 63 62 61 60 59 58 57 56 56 54 53 52 51 50 49 48 47 47 47 46 45 46 47 48 48
63 65 66 68 69 70 71 71 72 72 72 71 70 68 67 65 63 61 61 60 60 59 59 58 57 56 55 54 52 51 50 49 48 47 46 46 46 45 45 45 44 45 46 47
66 67 68 69 70 70 70 70 70 69 68 66 65 63 62 61 60 59 59 59 59 58 57 57 55 53 52 52 50 49 48 47 46 45 45 45 45 44 44 45 45 45 45 45
66 68 68 68 68 69 68 68 67 65 63 61 60 59 59 59 58 58 57 58 58 56 55 54 53 51 50 50 48 47 46 45 45 44 44 43 43 44 44 44 45 45 44 44
65 66 66 66 66 65 64 63 62 60 59 58 57 57 57 57 56 55 55 55 55 54 54 53 51 49 48 47 45 44 44 43 43 42 42 42 43 43 43 44 43 43 42 41
65 65 65 64 63 61 59 58 57 56 56 56 55 55 55 55 55 55 54 53 52 51 51 50 49 47 45 44 43 43 42 41 41 41 41 41 42 42 42 42 41 40 38 37
62 61 60 59 59 57 56 54 54 54 54 55 55 54 54 54 54 54 53 52 51 50 48 47 46 44 43 42 42 41 40 40 40 40 40 40 40 40 40 39 38 36 35 35
59 58 57 56 55 55 54 53 53 53 53 54 54 53 53 52 52 52 51 50 50 50 47 45 43 41 40 40 40 39 39 39 39 39 39 39 39 38 37 36 35 34 33 32
57 56 55 54 54 53 53 53 52 52 51 51 52 52 51 50 50 50 49 47 46 46 44 42 41 40 39 38 38 37 37 37 38 38 38 38 37 35 35 34 32 31 30 29
55 55 54 54 54 52 51 51 51 51 50 49 49 50 50 49 48 47 47 47 45 43 41 40 39 38 37 37 36 36 36 36 36 37 37 36 34 33 33 31 30 29 27 26
54 54 54 54 53 52 50 49 50 49 49 48 48 48 48 47 47 47 44 43 42 41 39 38 36 36 35 35 35 35 35 35 35 35 34 32 31 31 30 28 27 26 24 23
55 55 54 53 53 52 50 48 48 48 47 47 46 46 47 46 44 44 44 42 41 39 37 36 35 34 34 34 34 34 34 33 33 32 30 29 29 29 27 25 25 23 22 20
55 54 53 53 52 51 50 47 46 45 45 44 43 43 44 44 44 42 41 40 39 37 36 34 33 32 33 33 33 32 32 32 31 30 28 28 28 26 25 24 22 21 19 18
54 54 53 52 51 50 48 46 44 43 42 41 40 40 41 42 42 41 40 38 37 36 34 32 31 31 31 31 31 31 30 30 28 27 26 26 25 24 23 21 19 19 17 16
53 52 51 49 47 46 45 43 41 40 39 39 38 38 39 40 40 39 38 36 35 33 32 30 30 29 29 29 29 28 28 27 25 25 24 24 23 22 20 18 17 17 16 15

GEFSNGP_500_meanwind_078.txt.gz
Wind_Speed
30 31 32 30 29 30 31 31 30 27 27 26 29 31 34 36 38 40 42 45 47 50 52 54 57 60 62 64 67 69 72 74 75 77 78 78 78 78 77 75 74 73 71 70
32 32 32 30 29 30 31 32 32 31 30 30 32 34 37 39 41 43 46 49 52 54 57 59 62 65 67 69 72 75 77 78 79 80 79 79 78 77 75 74 72 71 70 68
34 32 33 31 30 31 32 33 33 32 32 34 35 38 40 42 45 47 50 53 56 59 61 64 67 69 72 74 76 79 80 81 81 80 79 78 76 75 73 71 69 68 67 66
36 34 33 32 32 32 32 32 33 34 35 37 39 41 43 46 49 52 55 58 61 63 66 68 71 74 76 78 79 81 82 82 81 79 77 75 73 71 69 68 66 65 64 63
38 37 34 32 33 32 33 34 35 37 38 40 42 44 47 50 53 56 59 62 65 67 70 72 75 77 79 80 81 82 81 80 78 75 73 70 68 66 65 63 62 60 59 58
39 38 36 33 34 35 36 37 37 39 41 43 45 48 50 53 56 59 62 65 68 71 73 75 77 79 81 81 82 81 79 76 73 70 68 65 63 62 61 60 58 56 55 55
39 39 37 36 37 37 39 40 41 42 44 46 49 52 55 58 61 64 66 69 71 74 75 77 79 81 81 81 80 79 76 72 68 65 64 62 61 60 59 57 55 54 53 52
38 39 39 39 39 40 41 42 44 46 48 51 53 56 59 62 65 67 69 71 73 75 76 78 80 80 80 78 77 74 70 66 63 61 60 60 59 57 56 55 53 52 51 50
38 39 41 41 42 43 44 45 47 50 52 55 58 60 63 65 67 69 71 73 75 76 77 78 78 78 77 75 72 68 64 61 60 59 58 58 57 55 53 53 52 50 49 47
39 40 42 43 44 45 46 49 51 54 56 59 62 64 66 68 69 71 73 74 76 77 77 76 75 74 72 70 67 63 61 59 58 57 56 54 53 52 51 50 49 47 46 45
41 42 43 44 46 47 50 52 54 57 60 63 65 66 68 69 71 72 74 75 76 76 75 74 73 70 67 65 62 60 58 57 56 55 54 51 50 50 48 47 47 45 44 43
42 42 44 46 48 50 52 54 57 60 62 64 66 67 69 70 71 73 74 75 75 73 72 71 69 65 63 61 60 58 56 55 53 52 50 49 47 45 45 45 44 44 43 42
44 44 46 48 50 52 55 57 60 61 63 65 66 68 69 71 71 72 73 74 73 71 69 67 65 62 60 59 57 56 55 53 52 50 48 46 45 43 42 41 42 42 42 41
46 47 49 51 53 56 58 59 61 63 64 66 67 69 70 71 72 72 72 71 70 68 66 64 62 59 58 57 56 54 53 52 50 48 46 44 44 43 42 41 40 40 40 40
48 50 52 54 56 58 59 61 62 64 65 66 68 69 70 71 70 69 69 68 67 65 63 61 59 57 57 55 54 52 51 50 47 45 44 43 42 42 41 41 40 39 38 38
51 53 54 56 57 59 61 62 63 64 66 67 68 68 69 69 68 67 66 66 64 62 60 58 56 55 54 53 52 50 49 47 45 44 42 42 41 41 41 40 40 39 37 36
53 54 56 57 58 60 61 62 64 66 66 67 67 68 67 67 66 64 63 62 61 59 57 56 54 53 52 52 50 48 46 44 43 42 41 40 40 40 40 39 39 38 36 35
55 56 57 58 59 60 61 62 64 65 66 67 67 67 66 65 64 62 61 59 56 55 54 54 52 51 50 49 48 46 44 42 41 40 39 39 38 38 38 38 37 35 33 32
56 56 57 58 60 61 62 63 64 64 65 65 66 65 64 63 62 60 58 56 54 52 50 50 49 48 47 47 45 44 42 41 39 39 38 37 37 36 36 35 34 32 30 29
55 56 57 58 60 61 62 63 64 64 64 64 64 63 62 60 59 57 55 52 52 50 48 47 46 46 45 44 43 41 40 39 38 37 36 35 35 34 33 32 31 30 28 28
54 56 57 59 60 60 61 63 64 64 63 63 63 62 60 57 56 54 52 49 48 47 46 45 45 44 43 42 40 39 38 37 36 35 34 33 33 32 31 30 29 28 27 27
56 57 58 59 60 60 61 61 63 63 62 61 61 60 58 55 53 51 49 47 45 44 43 43 43 42 41 40 38 37 36 35 34 33 32 32 31 29 28 28 27 27 26 26
56 58 59 59 60 61 60 61 62 62 61 60 59 57 55 53 50 48 45 43 42 42 41 41 40 40 39 38 36 35 34 33 31 31 30 29 28 27 26 26 26 26 25 25
57 58 59 60 61 61 60 60 61 60 60 58 56 55 52 49 46 44 42 40 40 39 39 39 39 38 37 36 35 33 32 30 29 29 28 27 26 26 26 25 25 25 24 24
58 59 59 60 61 61 61 60 59 57 56 54 52 50 48 46 43 40 38 38 38 38 38 38 37 36 36 34 33 31 30 29 27 26 26 25 25 25 24 24 24 23 23 22
58 59 60 60 61 61 60 58 56 54 51 49 47 45 43 41 39 37 36 36 36 37 36 36 35 34 33 32 30 29 28 26 25 24 24 24 24 23 23 23 22 22 21 21
58 59 59 59 58 58 57 54 52 49 47 45 43 40 39 37 36 36 35 35 35 35 35 34 33 32 31 29 28 27 26 24 23 23 23 23 22 22 22 21 20 20 19 19

GEFSNGP_500_meanwind_084.txt.gz
Wind_Speed
35 36 37 37 36 36 37 37 39 37 36 34 36 38 38 38 39 39 40 41 43 45 47 49 51 53 55 58 61 63 66 68 70 73 75 77 79 82 84 86 88 88 88 86
37 37 39 39 36 37 38 39 40 40 37 35 37 38 39 39 40 41 42 44 46 48 50 52 54 57 59 62 65 67 69 71 74 76 78 80 83 85 86 87 88 86 84 81
40 39 42 41 37 38 40 40 41 40 38 38 37 38 39 40 42 43 45 47 48 50 52 55 58 60 63 65 68 70 73 75 77 79 81 83 85 87 87 87 85 82 78 75
43 42 44 41 40 39 41 41 40 40 39 39 39 39 41 42 43 45 47 49 51 53 55 58 61 63 66 69 71 73 75 77 79 82 84 85 86 87 86 84 80 76 72 68
45 46 46 42 41 41 42 41 40 40 40 40 41 42 43 44 45 47 49 51 53 55 58 61 64 67 69 71 73 75 77 79 81 83 85 86 86 85 82 79 74 70 66 64
46 48 49 45 43 42 43 43 39 40 41 41 42 43 44 46 47 49 52 54 56 58 61 64 67 69 71 73 75 77 79 81 82 84 85 85 83 81 77 73 69 65 62 60
46 49 50 46 45 43 43 42 41 41 41 42 43 44 46 47 50 52 54 56 59 61 64 67 69 71 73 75 77 78 80 81 83 83 83 82 79 75 72 68 64 61 59 57
47 49 47 46 45 44 43 43 42 42 42 43 44 46 48 50 52 54 56 59 61 64 66 69 71 74 75 76 78 79 81 82 82 81 79 77 74 69 66 63 60 58 56 53
47 47 46 45 44 44 43 43 43 43 44 45 46 48 50 52 54 56 59 61 64 66 68 70 73 75 76 78 79 80 81 81 80 77 74 71 68 65 61 59 57 55 53 50
47 46 45 45 44 44 44 44 44 45 46 47 49 51 52 54 56 58 61 64 66 68 70 72 74 75 77 79 80 81 80 79 76 73 70 66 63 61 59 56 54 52 50 48
46 45 45 44 44 44 44 44 45 46 47 49 51 52 54 56 59 61 64 66 68 70 72 73 75 76 78 80 80 80 78 75 72 69 65 62 58 56 55 53 52 51 49 47
45 44 44 44 44 44 44 45 46 48 49 51 52 54 56 59 61 63 66 68 70 72 73 74 76 77 78 79 79 78 75 72 68 65 61 58 54 51 50 50 49 49 48 47
43 43 43 43 43 44 45 46 47 49 51 53 55 57 59 61 63 66 68 70 72 73 74 75 77 77 78 77 76 74 71 68 64 60 58 55 52 50 47 44 45 46 46 45
42 42 42 42 43 45 46 47 49 51 53 55 57 59 62 64 66 68 69 71 72 73 75 76 77 77 76 75 73 70 67 63 60 57 54 52 50 48 46 44 41 40 41 42
41 41 42 43 44 46 47 49 51 53 55 57 59 62 64 66 67 69 70 71 73 74 75 76 76 75 74 72 69 66 62 59 56 54 51 49 48 46 45 43 41 40 39 39
40 41 43 44 45 47 49 51 53 55 57 59 61 64 65 67 68 69 70 72 74 74 75 75 74 73 71 69 65 62 58 56 53 51 48 47 45 44 43 41 40 39 39 38
41 42 43 45 47 49 51 52 54 57 59 61 63 65 66 67 69 69 71 72 74 74 74 74 72 70 68 65 61 58 54 51 49 48 46 45 44 42 41 39 38 38 37 37
42 44 46 47 49 51 52 54 57 59 61 63 64 66 67 68 69 70 72 73 73 73 72 71 69 66 63 61 57 54 50 48 46 45 43 42 41 40 39 38 37 36 34 34
44 45 47 49 50 52 55 57 59 60 62 64 65 66 68 69 71 72 73 73 73 71 69 67 65 62 59 56 53 49 46 44 43 42 41 40 39 38 37 36 35 33 32 32
45 47 49 51 53 55 57 58 60 61 63 65 67 68 69 70 72 73 73 71 71 70 67 63 60 57 54 51 48 45 43 42 41 40 39 37 36 35 34 33 32 32 31 31
48 50 51 53 55 56 58 59 61 63 65 67 69 70 71 71 72 72 71 69 67 66 63 59 56 53 49 46 43 41 40 39 38 37 36 35 34 33 32 31 30 30 30 30
50 51 53 55 56 57 59 61 63 65 67 68 70 71 72 71 71 70 69 67 64 61 58 54 51 48 45 42 40 38 37 37 36 35 34 33 32 31 30 29 29 29 28 29
52 53 55 56 58 59 61 63 65 67 68 69 70 71 71 71 70 68 65 62 59 56 53 49 46 43 40 38 37 36 35 34 33 32 32 31 30 29 28 27 27 27 27 27
54 55 57 59 60 62 64 65 67 68 69 69 70 70 70 69 66 64 62 58 55 51 48 44 41 39 37 35 34 33 32 32 31 30 29 29 28 27 26 26 26 26 26 26
56 58 59 61 63 65 66 67 67 67 68 68 68 67 67 65 63 60 57 53 50 47 43 40 38 36 34 33 32 31 30 30 29 28 27 27 26 25 25 25 25 25 25 25
58 60 61 63 65 66 67 67 67 67 67 67 65 63 62 61 59 56 53 49 46 43 39 37 35 33 32 31 30 29 29 28 27 27 26 26 25 24 23 23 24 24 24 24
60 61 63 64 65 66 67 67 67 66 66 65 62 59 58 56 54 51 48 45 42 38 35 33 32 31 30 29 28 27 27 26 25 25 24 24 23 22 22 22 23 23 23 22